This demonstration page uses our WeatherBlox Daily Observations layout. Learn more.

Left ArrowRight Arrow

Hourly Observations for October 2, 2016

Temp ( °F °C ) Dew Point ( °F °C ) Humidity (%) Winds ( mph kmh ) Pressure ( in mb ) Visibility ( mi km ) Precip ( " mm )
12:54 am 00:54 Clear 52 11.1 51 10.6 97 97 Calm 30.09 1019 9 14.48406 0 0
1:54 am 01:54 Clear 50 10 48 8.9 93 93 N 3 6 30.11 1020 7 11.26538 0 0
2:54 am 02:54 Clear 49 9.4 47 8.3 93 93 N 3 6 30.1 1019 8 12.87472 0 0
3:54 am 03:54 Clear with Mist and Fog 47 8.3 45 7.2 93 93 N 5 7 30.1 1019 6 9.65604 0 0
4:54 am 04:54 Partly Cloudy with Mist and Fog 49 9.4 48 8.9 97 97 Calm 30.1 1019 5 8.0467 0 0
5:20 am 05:20 Mostly Cloudy 45 7 45 7 100 100 NNE 3 6 30.15 1021 7 11.26538 0 0
5:28 am 05:28 Mostly Cloudy with Mist and Fog 46 8 45 7 93 93 NNE 5 7 30.15 1021 1.5 2.41401 0 0
5:32 am 05:32 Mostly Cloudy with Fog 46 8 45 7 93 93 NNE 5 7 30.15 1021 0.5 0.80467 0 0
5:39 am 05:39 Mostly Cloudy with Fog 46 7.8 46 7.8 100 100 N 3 6 30.15 1021 0.25 0.402335 0 0
5:54 am 05:54 Mostly Cloudy with Fog 47 8.3 46 7.8 97 97 Calm 30.1 1019 0.5 0.80467 0 0
6:40 am 06:40 Cloudy with Mist and Fog 46 8 46 8 100 100 Calm 30.15 1021 1 1.60934 0 0
6:46 am 06:46 Mostly Cloudy with Mist and Fog 46 7.8 46 7.8 100 100 Calm 30.15 1021 2 3.21868 0 0
6:54 am 06:54 Mostly Cloudy with Mist and Fog 45 7.2 45 7.2 100 100 Calm 30.12 1020 1 1.60934 0 0
7:02 am 07:02 Mostly Cloudy with Fog 45 7 45 7 100 100 Calm 30.15 1021 0.5 0.80467 0 0
7:20 am 07:20 Mostly Cloudy with Fog 45 7 45 7 100 100 NNW 3 6 30.15 1021 0.25 0.402335 0 0
7:27 am 07:27 Partly Cloudy with Mist and Fog 45 7 45 7 100 100 Calm 30.15 1021 1.25 2.011675 0 0
7:30 am 07:30 Partly Cloudy with Mist and Fog 46 8 46 8 100 100 Calm 30.15 1021 3 4.82802 0 0
7:54 am 07:54 Sunny with Mist and Fog 47 8.3 46 7.8 97 97 Calm 30.13 1020 5 8.0467 0 0
8:54 am 08:54 Sunny 51 10.6 49 9.4 92 92 Calm 30.13 1020 8 12.87472 0 0
9:54 am 09:54 Sunny 58 14.4 53 11.7 84 84 ESE 3 6 30.12 1020 10 16.0934 0 0
10:54 am 10:54 Sunny 66 18.9 54 12.2 65 65 SE 8 13 30.12 1020 10 16.0934 0 0
11:54 am 11:54 Sunny 70 21.1 55 12.8 59 59 SE 8 13 30.11 1020 10 16.0934 0 0
12:54 pm 12:54 Sunny 73 22.8 54 12.2 51 51 ESE 8 13 30.09 1019 10 16.0934 0 0
1:54 pm 13:54 Sunny 76 24.4 54 12.2 47 47 SSE 8 13 30.08 1019 10 16.0934 0 0
2:54 pm 14:54 Sunny 76 24.4 53 11.7 45 45 E 5 7 30.05 1018 10 16.0934 0 0
3:54 pm 15:54 Sunny 77 25 52 11.1 42 42 SE 7 11 30.04 1017 10 16.0934 0 0
4:54 pm 16:54 Sunny 77 25 52 11.1 42 42 SSE 8 13 30.02 1017 10 16.0934 0 0
5:54 pm 17:54 Sunny 75 24 54 12 47 47 ESE 8 13 29.97 1015 10 16.0934 0 0
6:54 pm 18:54 Sunny 72 22.2 53 11.7 52 52 ESE 10 17 30.03 1017 10 16.0934 0 0
7:54 pm 19:54 Clear 69 20.6 54 12.2 59 59 ESE 10 17 30.04 1017 10 16.0934 0 0
8:54 pm 20:54 Clear 66 18.9 55 12.8 68 68 ESE 10 17 30.04 1017 10 16.0934 0 0
9:54 pm 21:54 Clear 65 18.3 55 12.8 70 70 SE 12 19 30.05 1018 10 16.0934 0 0
10:54 pm 22:54 Clear 63 17.2 54 12.2 73 73 SE 10 17 30.04 1017 10 16.0934 0 0
11:54 pm 23:54 Clear 62 16.7 54 12.2 75 75 SSE 10 17 30.04 1017 10 16.0934 0 0

Powered by AerisWeather